Location: Archemont
(49.1579°N, 1.7598°E)
Time: 16:38:31
(UTC+00:00)

Cosmos 2278 - Pass Details

Date: 03 February 2023
Orbit: 838 x 853 km, 71.1° (Epoch: 30 March)

Event Time Altitude Azimuth Distance (km) Brightness Sun altitude
Rises 18:00:47 0° 217° (SW) 3,388 7.7 -11.4°
Reaches altitude 10° 18:03:14 10° 221° (SW) 2,460 6.9 -11.8°
Maximum altitude 18:08:50 63° 302° (WNW) 946 4.2 -12.7°
Drops below altitude 10° 18:14:30 10° 24° (NNE) 2,486 5.8 -13.6°
Enters shadow 18:16:26 - 27° (NNE) 3,212 6.4 -13.9°
